MESAT1

Last updated on Tue Aug 25 2026 00:03:14 GMT+0000 (Coordinated Universal Time)

1 60209U 24125G 26236.04127894 .00084434 00000+0 65155-3 0 9992 2 60209 97.2180 95.4411 0005782 329.9425 30.1506 15.71668037120198
UTC large
Height (km)
Speed (km/s)
/
Latitude / Longitude
Inclination (degrees)
Orbital Period (minutes)
Azimuth
Elevation
Range (km)
Doppler Factor

Next 0 passes for location: London (51.5072 / 0.1276)

No passes found over London.
MESAT1